[[{"header":{"parameterUnit":"m.s-1","parameterCategory":1,"la1":30.2991,"la2":30.254,"lo1":-89.0895,"lo2":-89.0444,"dy":0.0017,"dx":0.0017,"nx":28,"ny":28,"refTime":"2025-03-22T21:00:00:Z","depth":0,"parameterNumber":2,"parameterNumberName":"U-component_of_WINDS"},"data":[0,0,0,0,0,0,0,0,0,0,0,0,0,0,0,0,0,0,0,0,0,0,0,0,0,0,0,0,0,0,0,0,0,0,0,0,0,0,0,0,0,0,0,0,0,0,0,0,0,0,0,0,0,0,0,0,0,0,1.6578,1.6579,0,1.6653,1.6654,1.6654,1.6652,1.6651,1.665,1.6649,1.6728,1.6731,1.6734,0,0,0,0,0,0,0,0,0,0,0,0,0,1.6435,1.6437,1.6578,1.6579,1.658,1.6653,1.6654,1.6655,1.6652,1.6651,1.665,1.6649,1.6727,1.6731,1.6735,0,0,0,0,0,0,0,0,0,0,0,0,0,1.6502,1.6438,1.6578,1.6587,1.6589,1.6652,1.6654,1.6655,1.6653,1.6651,1.665,1.6648,1.6726,1.673,1.6735,1.6795,0,0,1.6749,1.6751,0,0,0,0,0,0,0,0,1.6498,1.6507,1.6585,1.6587,1.6589,1.6641,1.6632,1.6702,1.6653,1.6629,1.6649,1.6647,1.6701,1.6707,1.6725,1.6798,1.6802,1.6749,1.6752,1.6754,1.6756,0,0,0,0,0,0,0,1.6494,1.6504,1.6607,1.6586,1.6588,1.6589,1.6596,1.6645,1.6673,1.6631,1.6631,1.6639,1.6702,1.672,1.6727,1.6803,1.6749,1.6753,1.6756,1.6758,1.6929,1.6931,0,0,0,0,0,0,1.6487,1.65,1.6605,1.661,1.6539,1.6592,1.6601,1.6626,1.6672,1.6677,1.6641,1.6639,1.6713,1.6721,1.6729,1.6803,1.6754,1.6759,1.6761,1.6928,1.693,1.6932,0,0,0,0,0,0,1.6484,1.6496,1.6602,1.6555,1.6569,1.6596,1.6625,1.6628,1.6647,1.668,1.6685,1.6655,1.6712,1.6723,1.6778,1.6805,1.6761,1.6765,1.6926,1.6928,1.6931,1.6949,0,0,0,0,0,0,1.6479,1.6495,1.6517,1.6556,1.6571,1.6649,1.6626,1.6631,1.6655,1.6654,1.6694,1.67,1.6712,1.6772,1.6783,1.6811,1.6768,1.6923,1.6927,1.693,1.6946,1.6952,1.6957,0,0,0,0,0,1.6474,1.652,1.6518,1.6531,1.6599,1.6651,1.666,1.6672,1.6657,1.668,1.6701,1.6698,1.68,1.6777,1.679,1.682,1.6922,1.6926,1.693,1.6944,1.6951,1.6957,0,0,0,0,0,0,1.6485,1.6525,1.6524,1.6583,1.6613,1.665,1.668,1.6679,1.6715,1.6713,1.6728,1.6737,1.6792,1.6812,1.6785,1.688,1.6859,1.6866,1.6866,1.6873,1.6878,1.6873,1.6772,0,0,0,0,0,1.6494,1.6531,1.6565,1.6613,1.6629,1.6652,1.6674,1.6681,1.6714,1.6727,1.6752,1.6784,1.6823,1.6849,1.6887,1.6949,1.6958,1.6976,1.6981,1.6986,1.6992,1.7027,1.7035,1.6945,1.6945,1.6945,0,0,1.6513,1.654,1.6562,1.6616,1.6641,1.668,1.6662,1.6704,1.6734,1.6734,1.6787,1.6807,1.6844,1.6903,1.693,1.692,1.7018,1.6991,1.6994,1.6998,1.7032,1.704,1.7048,1.6948,1.6947,1.6947,0,0,1.6568,1.6592,1.6635,1.666,1.6697,1.6712,1.6722,1.6759,1.6772,1.6826,1.6827,1.6862,1.693,1.6956,1.6978,1.7044,1.7043,1.7056,1.7085,1.7118,1.7126,1.7132,1.7156,1.7164,1.7061,1.7061,1.7062,0,1.6588,1.6646,1.6658,1.67,1.6724,1.6725,1.677,1.6793,1.6841,1.6858,1.6846,1.6931,1.6956,1.7022,1.7038,1.7055,1.7069,1.7052,1.7123,1.713,1.7136,1.7159,1.7168,1.7063,1.7063,1.7063,1.7062,0,1.6669,1.6709,1.674,1.6786,1.6813,1.6856,1.6875,1.6902,1.6907,1.6923,1.6979,1.7008,1.7053,1.7069,1.7074,1.7136,1.7128,1.712,1.7099,1.7146,1.7168,1.7177,1.7065,1.7064,1.7064,1.7064,0,0,1.6733,1.6784,1.6795,1.6816,1.6857,1.6889,1.6933,1.6975,1.6998,1.7031,1.7069,1.7126,1.7118,1.7144,1.7152,1.7182,1.7233,1.717,1.7171,1.7181,1.7303,1.7309,1.7319,1.7232,1.7234,1.7235,1.73,0,1.6793,1.6869,1.6882,1.695,1.6988,1.6989,1.7027,1.7057,1.7073,1.7109,1.7127,1.7168,1.7154,1.717,1.7199,1.722,1.7257,1.7215,1.7268,1.727,1.7259,1.7331,1.7338,1.7398,1.7309,1.731,1.7311,0,1.6873,1.6907,1.6979,1.7015,1.7032,1.7066,1.7106,1.7139,1.7173,1.7183,1.7212,1.7217,1.7263,1.724,1.7304,1.7276,1.7298,1.7311,1.7314,1.732,1.7294,1.734,1.7417,1.7427,1.7325,1.7324,1.7323,0,1.6913,1.6978,1.7029,1.7047,1.709,1.7114,1.7133,1.7166,1.7191,1.7226,1.7243,1.7283,1.7306,1.7338,1.7354,1.7335,1.7418,1.7396,1.7428,1.7428,1.7446,1.7445,1.7529,1.7459,1.7459,1.7459,1.7458,0,1.6979,1.7023,1.7048,1.708,1.7129,1.7143,1.7192,1.7211,1.7239,1.7275,1.7279,1.7313,1.7332,1.7368,1.7381,1.7433,1.7443,1.7453,1.7456,1.7454,1.7452,1.7469,1.7465,1.7461,1.7461,1.746,1.746,0,1.7033,1.7051,1.7107,1.7144,1.7154,1.7189,1.722,1.7251,1.7268,1.7313,1.7325,1.735,1.7394,1.7413,1.7467,1.7476,1.7535,1.7535,1.7524,1.7525,1.7557,1.7554,1.7655,1.767,1.7589,1.759,1.7591,0,1.7074,1.7108,1.7148,1.7172,1.7192,1.7231,1.7256,1.7271,1.7298,1.7339,1.7365,1.7409,1.7444,1.7514,1.7538,1.758,1.7581,1.7614,1.7587,1.7584,1.7583,1.7581,1.7584,1.7619,1.762,1.762,1.7621,0,1.7146,1.7153,1.719,1.7229,1.7259,1.7292,1.7323,1.7343,1.7363,1.7392,1.7437,1.7464,1.7519,1.7563,1.7606,1.7626,1.7628,1.7629,1.7639,1.7636,1.7629,1.7634,1.7538,1.7627,1.7626,1.7626,1.7625,1.7625,1.7195,1.7226,1.7259,1.7299,1.7324,1.7353,1.7385,1.7405,1.7442,1.7487,1.7494,1.7541,1.7575,1.7633,1.7655,1.7693,1.7685,1.7699,1.7703,1.7706,1.7709,1.7622,1.7701,1.7701,1.7701,1.77,1.77,0,1.7268,1.7289,1.7326,1.737,1.7402,1.7399,1.7434,1.7461,1.7503,1.7534,1.7568,1.762,1.7662,1.7689,1.7732,1.7758,1.7759,1.7768,1.7767,1.7772,1.7713,1.77,1.7766,1.7766,1.7766,1.7766,1.7766,1.7766,1.7309,1.7361,1.7372,1.7436,1.7457,1.7503,1.7523,1.7551,1.7576,1.7633,1.7668,1.7685,1.7715,1.776,1.7799,1.7806,1.7822,1.7832,1.7839,1.7783,1.7776,1.777,1.7758,1.7835,1.7835,1.7895,1.7895,1.7896]},{"header":{"parameterUnit":"m.s-1","parameterCategory":1,"la1":30.2991,"la2":30.254,"lo1":-89.0895,"lo2":-89.0444,"dy":0.0017,"dx":0.0017,"nx":28,"ny":28,"refTime":"2025-03-22T21:00:00:Z","depth":0,"parameterNumber":3,"parameterNumberName":"V-component_of_WINDS"},"data":[0,0,0,0,0,0,0,0,0,0,0,0,0,0,0,0,0,0,0,0,0,0,0,0,0,0,0,0,0,0,0,0,0,0,0,0,0,0,0,0,0,0,0,0,0,0,0,0,0,0,0,0,0,0,0,0,0,0,2.7318,2.732,0,2.7492,2.7494,2.7496,2.7564,2.7563,2.7563,2.7562,2.7739,2.7744,2.7749,0,0,0,0,0,0,0,0,0,0,0,0,0,2.7043,2.7048,2.7318,2.732,2.7322,2.7492,2.7494,2.7497,2.7564,2.7563,2.7563,2.7562,2.7738,2.7744,2.775,0,0,0,0,0,0,0,0,0,0,0,0,0,2.7184,2.7049,2.7317,2.7376,2.7383,2.7491,2.7494,2.7497,2.7564,2.7563,2.7563,2.7562,2.7736,2.7743,2.7751,2.7813,0,0,2.7774,2.7778,0,0,0,0,0,0,0,0,2.7176,2.7194,2.7365,2.7372,2.738,2.7506,2.7462,2.7603,2.7564,2.7495,2.7562,2.7562,2.7662,2.7676,2.771,2.7821,2.7828,2.7775,2.778,2.7783,2.7785,0,0,0,0,0,0,0,2.7166,2.7187,2.7387,2.7368,2.7377,2.7394,2.7413,2.7489,2.758,2.7501,2.7507,2.7526,2.7666,2.7702,2.7715,2.7831,2.7775,2.7782,2.7786,2.7789,2.8003,2.8004,0,0,0,0,0,0,2.7147,2.7178,2.7381,2.7392,2.7274,2.7399,2.7421,2.7466,2.758,2.7597,2.7527,2.7529,2.7689,2.7705,2.7721,2.7802,2.7783,2.779,2.7795,2.8002,2.8004,2.8005,0,0,0,0,0,0,2.7141,2.7164,2.7374,2.7287,2.7315,2.7405,2.7455,2.747,2.7506,2.7599,2.7616,2.7547,2.769,2.771,2.779,2.7809,2.7794,2.7801,2.8001,2.8003,2.8004,2.7964,0,0,0,0,0,0,2.7132,2.7162,2.7186,2.7287,2.7319,2.744,2.7456,2.7474,2.752,2.7524,2.7623,2.7638,2.7691,2.7778,2.7797,2.782,2.7807,2.8,2.8002,2.8004,2.7964,2.7964,2.7964,0,0,0,0,0,2.7122,2.7167,2.7187,2.7211,2.7352,2.7441,2.746,2.7519,2.7521,2.7547,2.7606,2.7635,2.7804,2.7786,2.7808,2.7833,2.7999,2.8001,2.8003,2.7964,2.7964,2.7964,0,0,0,0,0,0,2.7065,2.7181,2.7205,2.7284,2.7352,2.7452,2.7486,2.7517,2.7586,2.7587,2.7658,2.7679,2.7754,2.7801,2.7779,2.79,2.7903,2.791,2.7866,2.7867,2.7867,2.7854,2.7813,0,0,0,0,0,2.7062,2.7125,2.7223,2.7283,2.7317,2.7395,2.7437,2.7477,2.755,2.7579,2.7645,2.7715,2.7784,2.7828,2.7896,2.7971,2.7994,2.8,2.8,2.7999,2.8005,2.8049,2.8053,2.8012,2.8012,2.8012,0,0,2.7056,2.7127,2.7163,2.7274,2.7332,2.7396,2.7419,2.7486,2.7534,2.7589,2.7669,2.772,2.7802,2.788,2.7918,2.7922,2.8021,2.8002,2.8001,2.8007,2.8052,2.8056,2.8059,2.8014,2.8014,2.8013,0,0,2.7078,2.7137,2.7195,2.7253,2.734,2.7393,2.7406,2.7503,2.7539,2.762,2.7663,2.7721,2.7838,2.7896,2.7941,2.7985,2.8015,2.8006,2.8006,2.8049,2.8052,2.8055,2.8072,2.8077,2.801,2.801,2.801,0,2.7059,2.7157,2.722,2.7285,2.7333,2.7387,2.7446,2.7499,2.7604,2.7636,2.7639,2.7788,2.7848,2.7941,2.7952,2.7986,2.8004,2.7995,2.8046,2.805,2.8054,2.8071,2.8077,2.8009,2.8009,2.8009,2.8009,0,2.713,2.7198,2.7234,2.7335,2.7387,2.7448,2.7521,2.7566,2.7601,2.7653,2.7736,2.7809,2.7894,2.7919,2.7954,2.8017,2.8018,2.8033,2.8038,2.8055,2.8073,2.808,2.8006,2.8007,2.8008,2.8008,0,0,2.712,2.7257,2.7269,2.7317,2.7418,2.7471,2.7535,2.7619,2.7657,2.7727,2.7783,2.7882,2.7897,2.7947,2.7989,2.8027,2.8059,2.8038,2.8041,2.804,2.8135,2.8123,2.813,2.8079,2.808,2.8082,2.8128,0,2.7156,2.7274,2.7333,2.7425,2.7489,2.7542,2.7598,2.7666,2.7716,2.7777,2.7833,2.7902,2.7916,2.7947,2.7986,2.8046,2.8079,2.8044,2.8132,2.8134,2.811,2.8139,2.8127,2.8167,2.8135,2.8136,2.8137,0,2.7213,2.7285,2.7384,2.7479,2.7508,2.7557,2.764,2.7698,2.7776,2.781,2.7867,2.7909,2.7978,2.7978,2.8076,2.805,2.809,2.8125,2.8128,2.8139,2.8137,2.8151,2.8181,2.8187,2.8148,2.8147,2.8146,0,2.7198,2.7319,2.7394,2.7433,2.7545,2.7579,2.7627,2.7705,2.7752,2.7824,2.7856,2.7934,2.7977,2.8037,2.8099,2.8092,2.819,2.8195,2.8221,2.8219,2.824,2.8238,2.8277,2.8263,2.8263,2.8263,2.8263,0,2.7232,2.729,2.7389,2.7435,2.7502,2.757,2.7635,2.7687,2.7756,2.7813,2.7863,2.7916,2.7994,2.8057,2.8105,2.8179,2.8198,2.8228,2.824,2.8224,2.822,2.8251,2.825,2.8265,2.8264,2.8264,2.8264,0,2.7226,2.7294,2.7379,2.748,2.7506,2.7551,2.7637,2.7684,2.7737,2.7809,2.783,2.7913,2.799,2.8057,2.8158,2.8191,2.8267,2.8282,2.8241,2.8247,2.827,2.8267,2.8331,2.8344,2.832,2.832,2.8321,0,2.7243,2.729,2.7395,2.7438,2.7486,2.7553,2.7602,2.7671,2.7719,2.7813,2.7849,2.7929,2.7997,2.8117,2.8186,2.8264,2.8281,2.8299,2.8293,2.8276,2.8283,2.828,2.8285,2.8298,2.8298,2.8298,2.8298,0,2.7268,2.7299,2.7368,2.7449,2.7506,2.7573,2.7641,2.7673,2.7754,2.7807,2.7886,2.7939,2.8043,2.8122,2.8207,2.8257,2.8292,2.8299,2.831,2.8294,2.8269,2.8284,2.8241,2.8297,2.8298,2.8298,2.8298,2.8298,2.7275,2.7319,2.7401,2.7476,2.7535,2.7598,2.7648,2.7708,2.7775,2.7866,2.7902,2.7983,2.8061,2.818,2.823,2.8294,2.83,2.8315,2.8319,2.8322,2.8319,2.8258,2.831,2.831,2.831,2.831,2.831,0,2.7303,2.7358,2.7427,2.7521,2.7581,2.7609,2.7686,2.7734,2.7805,2.7875,2.7942,2.8033,2.8111,2.8187,2.8268,2.8306,2.8323,2.8325,2.8323,2.8334,2.8309,2.8292,2.8309,2.8309,2.8309,2.8309,2.8309,2.8309,2.7324,2.7401,2.7443,2.755,2.7605,2.7685,2.7727,2.7786,2.7843,2.7943,2.8009,2.8058,2.8131,2.8219,2.8291,2.8312,2.834,2.8337,2.8362,2.8336,2.8336,2.8335,2.832,2.8342,2.8342,2.8382,2.8382,2.8383]}]]